• In Germany
  • List of Countries
  • For 7 days
  • Water Temperature
  • Satellite Maps
  • Weather Map
  • Weather Widgets
  • user-avatar
    Login

    Hourly Weather El Guna

    Today, 22 September, Saturday

    Time Temperature Precipitation Wind Pressure Humidity
    00:00 +30°C° 0 mm 3 mps 731 mmHg 34%
    01:00 +30°C° 0 mm 3 mps 731 mmHg 35%
    02:00 +29°C° 0 mm 3 mps 731 mmHg 36%
    03:00 +29°C° 0 mm 3 mps 731 mmHg 37%
    04:00 +29°C° 0 mm 3 mps 731 mmHg 38%
    05:00 +28°C° 0 mm 3 mps 731 mmHg 39%
    06:00 +29°C° 0 mm 4 mps 731 mmHg 36%
    07:00 +32°C° 0 mm 4 mps 732 mmHg 33%
    08:00 +33°C° 0 mm 4 mps 732 mmHg 30%
    09:00 +35°C° 0 mm 4 mps 732 mmHg 26%
    10:00 +36°C° 0 mm 4 mps 732 mmHg 22%
    11:00 +38°C° 0 mm 4 mps 732 mmHg 18%
    12:00 +40°C° 0 mm 4 mps 732 mmHg 18%
    13:00 +41°C° 0 mm 5 mps 732 mmHg 17%
    14:00 +41°C° 0 mm 5 mps 731 mmHg 16%
    15:00 +40°C° 0 mm 5 mps 731 mmHg 17%
    16:00 +40°C° 0 mm 5 mps 731 mmHg 19%
    17:00 +39°C° 0 mm 5 mps 731 mmHg 21%
    18:00 +36°C° 0 mm 4 mps 731 mmHg 23%
    19:00 +35°C° 0 mm 4 mps 731 mmHg 26%
    20:00 +34°C° 0 mm 3 mps 732 mmHg 29%
    21:00 +33°C° 0 mm 3 mps 732 mmHg 29%
    22:00 +33°C° 0 mm 3 mps 732 mmHg 29%
    23:00 +31°C° 0 mm 3 mps 732 mmHg 30%

    Tomorrow, 23 September, Sunday

    Time Temperature Precipitation Wind Pressure Humidity
    00:00 +31°C° 0 mm 3 mps 732 mmHg 32%
    01:00 +30°C° 0 mm 3 mps 732 mmHg 34%
    02:00 +30°C° 0 mm 3 mps 732 mmHg 36%
    03:00 +29°C° 0 mm 3 mps 732 mmHg 38%
    04:00 +29°C° 0 mm 4 mps 731 mmHg 40%
    05:00 +29°C° 0 mm 4 mps 731 mmHg 42%
    06:00 +30°C° 0 mm 4 mps 732 mmHg 39%
    07:00 +32°C° 0 mm 4 mps 732 mmHg 37%
    08:00 +33°C° 0 mm 4 mps 732 mmHg 34%
    09:00 +35°C° 0 mm 4 mps 733 mmHg 30%
    10:00 +36°C° 0 mm 4 mps 733 mmHg 27%
    11:00 +38°C° 0 mm 4 mps 733 mmHg 23%
    12:00 +40°C° 0 mm 4 mps 732 mmHg 22%
    13:00 +41°C° 0 mm 5 mps 732 mmHg 20%
    14:00 +41°C° 0 mm 5 mps 732 mmHg 19%
    15:00 +41°C° 0 mm 5 mps 731 mmHg 21%
    16:00 +40°C° 0 mm 5 mps 731 mmHg 23%
    17:00 +39°C° 0 mm 5 mps 731 mmHg 25%
    18:00 +36°C° 0 mm 4 mps 731 mmHg 28%
    19:00 +35°C° 0 mm 4 mps 732 mmHg 31%
    20:00 +34°C° 0 mm 3 mps 732 mmHg 34%
    21:00 +33°C° 0 mm 3 mps 732 mmHg 35%
    22:00 +33°C° 0 mm 3 mps 732 mmHg 35%
    23:00 +33°C° 0 mm 3 mps 732 mmHg 35%

    Day after tomorrow, 24 September, Monday

    Time Temperature Precipitation Wind Pressure Humidity
    00:00 +31°C° 0 mm 3 mps 732 mmHg 37%
    01:00 +31°C° 0 mm 3 mps 732 mmHg 38%
    02:00 +30°C° 0 mm 3 mps 731 mmHg 39%
    03:00 +30°C° 0 mm 3 mps 731 mmHg 41%
    04:00 +29°C° 0 mm 3 mps 731 mmHg 43%
    05:00 +29°C° 0 mm 4 mps 731 mmHg 44%
    06:00 +30°C° 0 mm 4 mps 731 mmHg 41%
    07:00 +32°C° 0 mm 4 mps 732 mmHg 37%
    08:00 +33°C° 0 mm 4 mps 732 mmHg 33%
    09:00 +35°C° 0 mm 4 mps 732 mmHg 30%
    10:00 +37°C° 0 mm 4 mps 732 mmHg 26%
    11:00 +38°C° 0 mm 4 mps 732 mmHg 22%
    12:00 +40°C° 0 mm 4 mps 732 mmHg 20%
    13:00 +41°C° 0 mm 4 mps 731 mmHg 19%
    14:00 +42°C° 0 mm 4 mps 731 mmHg 17%
    15:00 +41°C° 0 mm 4 mps 731 mmHg 19%
    16:00 +40°C° 0 mm 4 mps 730 mmHg 21%
    17:00 +38°C° 0 mm 4 mps 730 mmHg 23%
    18:00 +37°C° 0 mm 4 mps 731 mmHg 26%
    19:00 +35°C° 0 mm 3 mps 731 mmHg 29%
    20:00 +34°C° 0 mm 2 mps 731 mmHg 32%
    21:00 +32°C° 0 mm 2 mps 731 mmHg 33%
    22:00 +32°C° 0 mm 2 mps 731 mmHg 33%
    23:00 +31°C° 0 mm 2 mps 731 mmHg 33%

    25 September, Tuesday

    Time Temperature Precipitation Wind Pressure Humidity
    00:00 +31°C° 0 mm 2 mps 731 mmHg 34%
    01:00 +30°C° 0 mm 3 mps 730 mmHg 35%
    02:00 +30°C° 0 mm 3 mps 730 mmHg 36%
    03:00 +29°C° 0 mm 3 mps 730 mmHg 37%
    04:00 +29°C° 0 mm 3 mps 730 mmHg 38%
    05:00 +29°C° 0 mm 3 mps 730 mmHg 40%
    06:00 +30°C° 0 mm 3 mps 730 mmHg 36%
    07:00 +32°C° 0 mm 4 mps 731 mmHg 33%
    08:00 +34°C° 0 mm 4 mps 731 mmHg 30%
    09:00 +36°C° 0 mm 4 mps 731 mmHg 26%
    10:00 +37°C° 0 mm 4 mps 731 mmHg 22%
    11:00 +40°C° 0 mm 4 mps 731 mmHg 18%
    12:00 +41°C° 0 mm 5 mps 731 mmHg 17%
    13:00 +42°C° 0 mm 5 mps 730 mmHg 16%
    14:00 +42°C° 0 mm 6 mps 730 mmHg 14%
    15:00 +41°C° 0 mm 6 mps 730 mmHg 16%
    16:00 +40°C° 0 mm 5 mps 730 mmHg 17%
    17:00 +39°C° 0 mm 5 mps 730 mmHg 19%
    18:00 +37°C° 0 mm 5 mps 730 mmHg 21%
    19:00 +35°C° 0 mm 4 mps 730 mmHg 24%
    20:00 +34°C° 0 mm 3 mps 731 mmHg 27%
    21:00 +33°C° 0 mm 3 mps 731 mmHg 27%
    22:00 +32°C° 0 mm 2 mps 731 mmHg 27%
    23:00 +31°C° 0 mm 2 mps 730 mmHg 27%

    26 September, Wednesday

    Time Temperature Precipitation Wind Pressure Humidity
    00:00 +31°C° 0 mm 2 mps 730 mmHg 27%
    01:00 +30°C° 0 mm 2 mps 730 mmHg 28%
    02:00 +30°C° 0 mm 3 mps 730 mmHg 28%
    03:00 +29°C° 0 mm 3 mps 730 mmHg 30%
    04:00 +29°C° 0 mm 3 mps 730 mmHg 32%
    05:00 +29°C° 0 mm 3 mps 730 mmHg 34%
    06:00 +30°C° 0 mm 4 mps 730 mmHg 31%
    07:00 +32°C° 0 mm 4 mps 730 mmHg 29%
    08:00 +34°C° 0 mm 4 mps 731 mmHg 26%
    09:00 +35°C° 0 mm 4 mps 731 mmHg 22%
    10:00 +37°C° 0 mm 4 mps 731 mmHg 18%
    11:00 +40°C° 0 mm 4 mps 731 mmHg 15%
    12:00 +40°C° 0 mm 5 mps 730 mmHg 14%
    13:00 +41°C° 0 mm 5 mps 730 mmHg 13%
    14:00 +42°C° 0 mm 5 mps 729 mmHg 12%
    15:00 +41°C° 0 mm 5 mps 729 mmHg 14%
    16:00 +40°C° 0 mm 5 mps 729 mmHg 15%
    17:00 +39°C° 0 mm 5 mps 730 mmHg 17%
    18:00 +36°C° 0 mm 4 mps 730 mmHg 19%
    19:00 +35°C° 0 mm 3 mps 730 mmHg 22%
    20:00 +33°C° 0 mm 3 mps 731 mmHg 24%
    21:00 +33°C° 0 mm 3 mps 730 mmHg 25%
    22:00 +33°C° 0 mm 3 mps 730 mmHg 25%
    23:00 +31°C° 0 mm 3 mps 730 mmHg 25%

    27 September, Thursday

    Time Temperature Precipitation Wind Pressure Humidity
    00:00 +31°C° 0 mm 3 mps 730 mmHg 26%
    01:00 +30°C° 0 mm 3 mps 730 mmHg 27%
    02:00 +30°C° 0 mm 3 mps 730 mmHg 28%
    03:00 +29°C° 0 mm 3 mps 730 mmHg 31%
    04:00 +28°C° 0 mm 4 mps 730 mmHg 34%
    05:00 +28°C° 0 mm 4 mps 730 mmHg 37%
    06:00 +29°C° 0 mm 4 mps 730 mmHg 36%
    07:00 +30°C° 0 mm 4 mps 731 mmHg 35%
    08:00 +32°C° 0 mm 4 mps 731 mmHg 34%
    09:00 +33°C° 0 mm 4 mps 731 mmHg 30%
    10:00 +35°C° 0 mm 4 mps 731 mmHg 26%
    11:00 +37°C° 0 mm 4 mps 731 mmHg 21%
    12:00 +37°C° 0 mm 5 mps 731 mmHg 20%
    13:00 +39°C° 0 mm 5 mps 730 mmHg 18%
    14:00 +40°C° 0 mm 6 mps 730 mmHg 16%
    15:00 +39°C° 0 mm 5 mps 730 mmHg 18%
    16:00 +37°C° 0 mm 5 mps 730 mmHg 20%
    17:00 +36°C° 0 mm 5 mps 730 mmHg 21%
    18:00 +35°C° 0 mm 5 mps 730 mmHg 24%
    19:00 +33°C° 0 mm 4 mps 731 mmHg 26%
    20:00 +32°C° 0 mm 4 mps 731 mmHg 29%
    21:00 +31°C° 0 mm 3 mps 731 mmHg 30%
    22:00 +30°C° 0 mm 3 mps 731 mmHg 31%
    23:00 +30°C° 0 mm 3 mps 731 mmHg 31%
    Show more